Regional Weather Roundup
Issued by NWS

Home | Current Version | Previous Version | Text Only | Print | Product List | Glossary On
Versions: 1 2 3 4 5 6 7 8 9 10 11 12 13 14 15 16 17 18 19 20 21 22 23 24 25 26 27 28 29 30 31 32 33 34 35 36 37 38 39 40 41 42 43 44 45 46 47 48 49 50
067
ASUS43 KDTX 160410
RWRMI
MICHIGAN HOURLY REGIONAL WEATHER ROUNDUP
NATIONAL WEATHER SERVICE DETROIT/PONTIAC MI
1200 AM EDT WED OCT 16 2019

NOTE: "FAIR" INDICATES FEW OR NO CLOUDS BELOW 12,000 FEET WITH NO
SIGNIFICANT WEATHER AND/OR OBSTRUCTION TO VISIBILITY.

MIZ047>049-052>055-059>063-066>070-074>076-081>083-160500-
SOUTHEAST LOWER MICHIGAN

CITY           SKY/WX    TMP DP  RH WIND       PRES   REMARKS
ADRIAN         CLOUDY    61  53  75 SW12      29.67F
ALMA           LGT RAIN  51  49  93 CALM      29.62S
ANN ARBOR      MOCLDY    58  48  69 S8        29.64F
BAD AXE        CLOUDY    54  48  82 SE12G21   29.60F
CARO           CLOUDY    56  47  72 SE7G16    29.59F
DETROIT CITY   FAIR      61  45  55 S8        29.65F
DETROIT        MOCLDY    61  47  59 S12       29.66F
FLINT          MOCLDY    56  47  71 S10       29.62F
GROSSE ILE     CLOUDY    59  52  79 SW10      29.65F
HILLSDALE      RAIN      59  56  89 SW13G21   29.66F
HOWELL         CLOUDY    60  46  60 S7        29.62F

CITY           SKY/WX    TMP DP  RH WIND       PRES   REMARKS
JACKSON        CLOUDY    62  55  77 SW21G28   29.64F
LAMBERTVILLE   CLOUDY    66  55  67 SW8       29.67F
LANSING        LGT RAIN  59  55  87 SW14G30   29.63S FOG
LAPEER         FAIR      54  47  78 SE6       29.63F
MASON          LGT RAIN  61  56  83 SW10G20   29.62F
MONROE         MOCLDY    64  48  57 SW9       29.66F
MT. CLEMENS    LGT RAIN  59  50  72 S13       29.62F
PONTIAC        MOCLDY    56  47  71 SE7       29.63F
PORT HOPE        N/A     54  46  74 SE13G22   29.60F
PORT HURON     FAIR      59  48  67 SE10G16   29.65F
TRI CITIES     CLOUDY    54  46  74 NW7       29.62R
MIDLAND        RAIN      51  47  87 CALM      29.61F
TROY           FAIR      58  51  79 CALM      29.65F
SAGINAW HB     MIX PCPN  55  46  71 SW7G20    29.60R
$$
MIZ043>046-050>051-056>058-064>065-071>073-077>080-160500-
SOUTHWEST LOWER MICHIGAN

CITY           SKY/WX    TMP DP  RH WIND       PRES   REMARKS
BATTLE CREEK   RAIN      54  51  90 W23G37    29.69R FOG
BENTON HARBOR  CLOUDY    53  42  66 NW15G31   29.76S
BIG RAPIDS     CLOUDY    50  48  92 NW9       29.63S
COLDWATER      LGT RAIN  59  58  96 SW12      29.67S
FREMONT        CLOUDY    49  46  90 W9        29.66S
HOLLAND        CLOUDY    52  44  74 NW12G29   29.71R
GRAND RAPIDS   CLOUDY    53  49  86 W17G26    29.67R
IONIA          HVY RAIN  56  55  96 SW7       29.63R
KALAMAZOO      LGT RAIN  53  48  83 NW17G28   29.70R
LUDINGTON      CLOUDY    49  44  81 W10G18    29.64F
MARSHALL       RAIN      60  56  88 W21G29    29.66R
MOUNT PLEASANT CLOUDY    49  49 100 CALM      29.61F FOG
MUSKEGON       CLOUDY    51  41  68 W18G28    29.68S
SOUTH HAVEN    CLOUDY    54  47  78 W8G26     29.74R
$$
MIZ016>042-160500-
NORTHERN LOWER MICHIGAN

CITY           SKY/WX    TMP DP  RH WIND       PRES   REMARKS
ALPENA         RAIN      49  47  93 E22G35    29.65F FOG
BEAVER ISLAND  DRIZZLE   48  48  98 E9        29.64F
BELLAIRE       CLOUDY    49  47  93 CALM      29.62F
CADILLAC       CLOUDY    49  47  91 W10G16    29.61F
CHARLEVOIX     LGT RAIN  49  47  93 E8        29.64F
FRANKFORT      CLOUDY    53  46  77 W12       29.61F
GAYLORD        CLOUDY    45  45 100 SE7       29.63F FOG
GRAYLING       CLOUDY    46  45  99 E5        29.61F
HARBOR SPRINGS LGT RAIN  48  46  92 E13       29.63F
HOUGHTON LAKE  CLOUDY    47  46  97 CALM      29.62F
MANISTEE       MOCLDY    49  46  90 W10       29.63S
OSCODA         RAIN      52  49  91 E10       29.61F
PELLSTON       LGT RAIN  48  46  93 E10       29.66F FOG
ROGERS CITY    CLOUDY    48  46  93 SE9       29.68F
TRAVERSE CITY  CLOUDY    49  46  90 S6        29.60F
$$
MIZ007>008-015-160500-
EASTERN UPPER MICHIGAN

CITY           SKY/WX    TMP DP  RH WIND       PRES   REMARKS
KINROSS        LGT RAIN  43  42  97 NE15      29.72F
MACKINAC ISLAN CLOUDY    50  50 100 E12G18    29.67F FOG
NEWBERRY       LGT RAIN  45  43  92 NE10      29.71F
S. S. MARIE    LGT RAIN  44  42  93 NE10G18   29.73F
MUNISING         N/A     44  41  89 NE12      29.74F
$$
MIZ004>006-011>014-085-160500-
CENTRAL UPPER MICHIGAN

CITY           SKY/WX    TMP DP  RH WIND       PRES   REMARKS
MANISTIQUE     DRIZZLE   44  43  97 N14       29.67F
ESCANABA       RAIN      43  41  93 N13G20    29.67F
MENOMINEE      CLOUDY    44  42  93 N13G24    29.66R
SAWYER-GWINN   LGT RAIN  42  40  92 NE17      29.74F
$$
MIZ001>003-009>011-084-160500-
WESTERN UPPER MICHIGAN

CITY           SKY/WX    TMP DP  RH WIND       PRES   REMARKS
IRON MOUNTAIN  LGT RAIN  40  37  89 N13       29.73S WCI  32
HOUGHTON       CLOUDY    43  38  82 N6        29.85S
COPPER HARBOR    N/A     46  43  89 NE10      29.86S
IRONWOOD       CLOUDY    39  39 100 N9        29.91R WCI  33
$$

ABBREVIATIONS USED IN REMARKS
   TC - TEMPERATURE IN CELSIUS
  WCI - WIND CHILL INDEX
   HX - HEAT INDEX
  VSB - VISIBILITY





USA.gov is the U.S. government's official web portal to all federal, state and local government web resources and services.